User: anonymous   Login
Location: Unspecified
(0.0000°N, 0.0000°E)
Time: 04:46:08
(UTC+00:00)
Language:

FR-1 - Orbit

View from above orbital plane
View from above orbital plane
View from above satellite
View from above satellite

Ground track
Ground track

The orbit data is extracted from the following two-line orbital elements,

1 01814U 65101A   18020.54103839  .00000103  00000-0  21528-4 0  9997
2 01814  75.8658 216.0485 0005861 112.7633 247.4166 14.66467395626751
Epoch (UTC): 20 January 2018 12:59:05
Eccentricity: 0.0005861
inclination: 75.8658°
perigee height: 668 km
apogee height: 676 km
right ascension of ascending node: 216.0485°
argument of perigee: 112.7633°
revolutions per day: 14.66467395
mean anomaly at epoch: 247.4166°
orbit number at epoch: 62675

The dashed part of the orbit path shows where the satellite is in the earth's shadow,  

DLR